Lander, WY

8:43 PM MST on February 12, 2016 (GMT -0700)
South Pass

Weather History for KFWZ - June, 2013

Change the Weather History Date:

Wednesday, June 12, 2013

  Actual Average (KLND) Record (KLND)
Temperature  
Mean Temperature 63 °F 62 °F  
Max Temperature 73 °F 76 °F 94 °F (1918)
Min Temperature 53 °F 47 °F 32 °F (1947)
Degree Days  
Heating Degree Days 2 5  
Month to date heating degree days 75  
Since 1 June heating degree days 75  
Since 1 July heating degree days 7697  
Cooling Degree Days 0 2  
Month to date cooling degree days 13  
Year to date cooling degree days 18  
Since 1 June cooling degree days 13  
Growing Degree Days 13 (Base 50)    
Moisture  
Dew Point 24 °F    
Average Humidity 25    
Maximum Humidity 44    
Minimum Humidity 12    
Precipitation  
Precipitation 0.00 in 0.05 in 1.20 in (2010)
Month to date precipitation 0.68  
Year to date precipitation 6.90  
Snow  
Snow 0.00 in 0.00 in - ()
Month to date snowfall 0.1  
Since 1 June snowfall 0.1  
Since 1 July snowfall 91.4  
Snow Depth -    
Sea Level Pressure  
Sea Level Pressure 30.22 in    
Wind  
Wind Speed 6 mph (SW)    
Max Wind Speed 18 mph    
Max Gust Speed 31 mph    
Visibility 10 miles    
Events      
T = Trace of Precipitation, MM = Missing Value Source: NWS Daily Summary

Daily Weather History Graph

Daily Weather History Graph

Search for Another Location

Airport or City:

Trip Planner

Search our weather history database for the weather conditions in past years. The results will help you decide how hot, cold, wet, or windy it might be!

Date:

Astronomy

Jun. 12, 2013 Rise Set
Actual Time 5:37 AM MDT 8:53 PM MDT
Civil Twilight 5:02 AM MDT 9:27 PM MDT
Nautical Twilight 4:17 AM MDT 10:12 PM MDT
Astronomical Twilight 3:22 AM MDT 11:07 PM MDT
Moon 9:23 AM MDT (6/12) 11:26 PM MDT (6/12)
Length of Visible Light 16h 25m
Length of Day
15h 15m
Waxing Crescent, 14% of the Moon is Illuminated
Jun 12
Waxing Crescent
Jun 16
First Quarter
Jun 23
Full
Jun 29
Last Quarter
Jul 8
New

Hourly Weather History & Observations

Time (MDT) Temp. Dew Point Humidity Pressure Visibility Wind Dir Wind Speed Gust Speed Precip Events Conditions
12:15 AM 55.4 °F 30.2 °F 38% 30.23 in 10.0 mi Calm Calm - N/A   Clear
12:35 AM 59.0 °F 30.2 °F 34% 30.23 in 10.0 mi Calm Calm - N/A   Clear
12:55 AM 57.2 °F 30.2 °F 36% 30.23 in 10.0 mi Calm Calm - N/A   Clear
1:15 AM 57.2 °F 30.2 °F 36% 30.23 in 10.0 mi Calm Calm - N/A   Clear
1:35 AM 55.4 °F 30.2 °F 38% 30.23 in 10.0 mi Calm Calm - N/A   Clear
1:55 AM 55.4 °F 32.0 °F 41% 30.23 in 10.0 mi Calm Calm - N/A   Clear
2:15 AM 55.4 °F 32.0 °F 41% 30.23 in 10.0 mi Calm Calm - N/A   Clear
2:35 AM 55.4 °F 32.0 °F 41% 30.23 in 10.0 mi Calm Calm - N/A   Clear
2:55 AM 55.4 °F 32.0 °F 41% 30.23 in 10.0 mi Calm Calm - N/A   Clear
3:15 AM 55.4 °F 30.2 °F 38% 30.23 in 10.0 mi Calm Calm - N/A   Clear
3:35 AM 55.4 °F 30.2 °F 38% 30.23 in 10.0 mi Calm Calm - N/A   Clear
3:55 AM 55.4 °F 32.0 °F 41% 30.23 in 10.0 mi SE 3.5 mph - N/A   Clear
4:15 AM 55.4 °F 32.0 °F 41% 30.23 in 10.0 mi SSE 3.5 mph - N/A   Scattered Clouds
4:35 AM 55.4 °F 30.2 °F 38% 30.23 in 10.0 mi SSE 3.5 mph - N/A   Scattered Clouds
4:55 AM 53.6 °F 32.0 °F 44% 30.23 in 10.0 mi SSW 4.6 mph - N/A   Clear
5:15 AM 53.6 °F 32.0 °F 44% 30.24 in 10.0 mi SSW 4.6 mph - N/A   Scattered Clouds
5:35 AM 53.6 °F 32.0 °F 44% 30.23 in 10.0 mi SW 3.5 mph - N/A   Mostly Cloudy
5:55 AM 53.6 °F 32.0 °F 44% 30.23 in 10.0 mi WSW 4.6 mph - N/A   Mostly Cloudy
6:15 AM 53.6 °F 30.2 °F 41% 30.23 in 10.0 mi WSW 3.5 mph - N/A   Scattered Clouds
6:35 AM 53.6 °F 30.2 °F 41% 30.24 in 10.0 mi WSW 3.5 mph - N/A   Clear
6:55 AM 53.6 °F 32.0 °F 44% 30.23 in 10.0 mi WSW 3.5 mph - N/A   Clear
7:15 AM 55.4 °F 32.0 °F 41% 30.23 in 10.0 mi Calm Calm - N/A   Clear
7:35 AM 57.2 °F 32.0 °F 38% 30.24 in 10.0 mi Calm Calm - N/A   Clear
7:55 AM 59.0 °F 32.0 °F 36% 30.25 in 10.0 mi South 6.9 mph - N/A   Clear
8:15 AM 59.0 °F 32.0 °F 36% 30.25 in 10.0 mi South 11.5 mph 18.4 mph N/A   Clear
8:35 AM 60.8 °F 32.0 °F 34% 30.25 in 10.0 mi South 11.5 mph 17.3 mph N/A   Clear
8:55 AM 60.8 °F 32.0 °F 34% 30.25 in 10.0 mi SSW 6.9 mph 16.1 mph N/A   Clear
9:15 AM 62.6 °F 32.0 °F 32% 30.25 in 10.0 mi South 9.2 mph 16.1 mph N/A   Clear
9:35 AM 62.6 °F 30.2 °F 30% 30.25 in 10.0 mi SW 9.2 mph - N/A   Clear
9:55 AM 64.4 °F 28.4 °F 26% 30.25 in 10.0 mi SW 6.9 mph - N/A   Clear
10:15 AM 64.4 °F 30.2 °F 28% 30.25 in 10.0 mi WSW 9.2 mph 20.7 mph N/A   Clear
10:35 AM 64.4 °F 30.2 °F 28% 30.25 in 10.0 mi SW 10.4 mph 18.4 mph N/A   Clear
10:55 AM 66.2 °F 26.6 °F 23% 30.23 in 10.0 mi SSW 9.2 mph 20.7 mph N/A   Clear
11:15 AM 68.0 °F 26.6 °F 21% 30.23 in 10.0 mi SSW 13.8 mph 21.9 mph N/A   Clear
11:35 AM 68.0 °F 26.6 °F 21% 30.23 in 10.0 mi SW 12.7 mph 25.3 mph N/A   Clear
11:55 AM 69.8 °F 24.8 °F 18% 30.23 in 10.0 mi SW 13.8 mph 21.9 mph N/A   Clear
12:15 PM 69.8 °F 23.0 °F 17% 30.23 in 10.0 mi SSW 13.8 mph 23.0 mph N/A   Clear
12:35 PM 69.8 °F 23.0 °F 17% 30.23 in 10.0 mi SSW 13.8 mph 21.9 mph N/A   Clear
12:55 PM 69.8 °F 21.2 °F 16% 30.23 in 10.0 mi WSW 12.7 mph 31.1 mph N/A   Scattered Clouds
1:15 PM 69.8 °F 23.0 °F 17% 30.22 in 10.0 mi SW 13.8 mph 19.6 mph N/A   Scattered Clouds
1:35 PM 69.8 °F 21.2 °F 16% 30.21 in 10.0 mi SW 15.0 mph 23.0 mph N/A   Scattered Clouds
1:55 PM 69.8 °F 21.2 °F 16% 30.21 in 10.0 mi WSW 18.4 mph 24.2 mph N/A   Scattered Clouds
2:15 PM 71.6 °F 19.4 °F 14% 30.21 in 10.0 mi WSW 15.0 mph 23.0 mph N/A   Scattered Clouds
2:35 PM 71.6 °F 19.4 °F 14% 30.21 in 10.0 mi SW 15.0 mph 23.0 mph N/A   Clear
2:55 PM 73.4 °F 19.4 °F 13% 30.21 in 10.0 mi SW 16.1 mph 26.5 mph N/A   Scattered Clouds
3:15 PM 71.6 °F 19.4 °F 14% 30.20 in 10.0 mi WSW 18.4 mph 25.3 mph N/A   Clear
3:35 PM 71.6 °F 21.2 °F 15% 30.20 in 10.0 mi WSW 17.3 mph 25.3 mph N/A   Clear
3:55 PM 71.6 °F 21.2 °F 15% 30.20 in 10.0 mi SSW 12.7 mph 26.5 mph N/A   Scattered Clouds
4:15 PM 71.6 °F 21.2 °F 15% 30.19 in 10.0 mi SSW 15.0 mph 29.9 mph N/A   Clear
4:35 PM 71.6 °F 21.2 °F 15% 30.19 in 10.0 mi SSW 10.4 mph 25.3 mph N/A   Clear
4:55 PM 71.6 °F 21.2 °F 15% 30.19 in 10.0 mi WSW 16.1 mph 20.7 mph N/A   Clear
5:15 PM 71.6 °F 21.2 °F 15% 30.19 in 10.0 mi SW 13.8 mph 27.6 mph N/A   Clear
5:35 PM 71.6 °F 19.4 °F 14% 30.19 in 10.0 mi SW 17.3 mph 26.5 mph N/A   Scattered Clouds
5:55 PM 71.6 °F 17.6 °F 13% 30.18 in 10.0 mi SW 15.0 mph 21.9 mph N/A   Scattered Clouds
6:15 PM 71.6 °F 15.8 °F 12% 30.18 in 10.0 mi SW 16.1 mph 27.6 mph N/A   Clear
6:35 PM 69.8 °F 14.0 °F 12% 30.18 in 10.0 mi WSW 16.1 mph 26.5 mph N/A   Clear
6:55 PM 69.8 °F 17.6 °F 14% 30.18 in 10.0 mi WSW 16.1 mph 21.9 mph N/A   Clear
7:15 PM 69.8 °F 14.0 °F 12% 30.19 in 10.0 mi WSW 16.1 mph 25.3 mph N/A   Clear
7:35 PM 68.0 °F 12.2 °F 12% 30.19 in 10.0 mi WSW 10.4 mph 20.7 mph N/A   Clear
7:55 PM 68.0 °F 15.8 °F 13% 30.19 in 10.0 mi WSW 11.5 mph 19.6 mph N/A   Clear
8:15 PM 68.0 °F 17.6 °F 15% 30.19 in 10.0 mi SW 11.5 mph 19.6 mph N/A   Clear
8:35 PM 68.0 °F 14.0 °F 12% 30.19 in 10.0 mi SW 15.0 mph 19.6 mph N/A   Clear
8:55 PM 66.2 °F 14.0 °F 13% 30.19 in 10.0 mi SW 10.4 mph - N/A   Clear
9:15 PM 64.4 °F 14.0 °F 14% 30.19 in 10.0 mi SW 8.1 mph - N/A   Clear
9:35 PM 64.4 °F 15.8 °F 15% 30.19 in 10.0 mi SW 8.1 mph - N/A   Clear
9:55 PM 62.6 °F 15.8 °F 16% 30.20 in 10.0 mi WSW 6.9 mph - N/A   Clear
10:15 PM 62.6 °F 15.8 °F 16% 30.19 in 10.0 mi WSW 6.9 mph - N/A   Clear
10:35 PM 62.6 °F 14.0 °F 15% 30.19 in 10.0 mi West 5.8 mph - N/A   Clear
10:55 PM 62.6 °F 14.0 °F 15% 30.19 in 10.0 mi WSW 5.8 mph - N/A   Clear
11:15 PM 62.6 °F 15.8 °F 16% 30.18 in 10.0 mi SSW 3.5 mph - N/A   Clear
11:35 PM 62.6 °F 15.8 °F 16% 30.18 in 10.0 mi SSW 4.6 mph - N/A   Clear
11:55 PM 60.8 °F 15.8 °F 17% 30.18 in 10.0 mi SSW 4.6 mph - N/A   Scattered Clouds